Voltar ao catálogo

STARLINK-4375

AtivoComunicaçõesSSO
NORAD 53192·PAYLOAD·🇺🇸 United States

Lançado Jul 22, 2022 de Vandenberg Space Force Base

Loading…

Próximas Passagens (próximas 24 horas)

TLE

AtualizadoSource: CelesTrak SupGP

Época: Sep 14, 2026, 21:19 UTC

1 53192C 22084D   26257.88868056 -.00022548  00000+0 -70021-3 0  2579
2 53192  97.2846 313.6193 0001711  76.4460 222.2043 15.33437915    18

Acompanhe STARLINK-4375 em tempo real com AllMySat

Download on the App Store